[[{"header":{"parameterUnit":"m.s-1","parameterCategory":1,"la1":30.2991,"la2":30.254,"lo1":-89.0895,"lo2":-89.0444,"dy":0.0017,"dx":0.0017,"nx":28,"ny":28,"refTime":"2024-02-22T09:00:00:Z","depth":0,"parameterNumber":2,"parameterNumberName":"U-component_of_WINDS"},"data":[0,0,0,0,0,0,0,0,0,0,0,0,0,0,0,0,0,0,0,0,0,0,0,0,0,0,0,0,0,0,0,0,0,0,0,0,0,0,0,0,0,0,0,0,0,0,0,0,0,0,0,0,0,0,0,0,0,0,0.0841,0.0839,0,0.0703,0.0702,0.07,0.0624,0.0624,0.0623,0.0623,0.0486,0.0483,0.048,0,0,0,0,0,0,0,0,0,0,0,0,0,0.1042,0.1039,0.0841,0.0839,0.0837,0.0704,0.0702,0.07,0.0624,0.0624,0.0623,0.0623,0.0487,0.0483,0.0479,0,0,0,0,0,0,0,0,0,0,0,0,0,0.0935,0.1038,0.0841,0.0783,0.0777,0.0704,0.0702,0.0699,0.0624,0.0624,0.0623,0.0623,0.0489,0.0484,0.0479,0.0454,0,0,0.0463,0.0461,0,0,0,0,0,0,0,0,0.0941,0.0928,0.0793,0.0787,0.078,0.068,0.0722,0.0617,0.0624,0.0682,0.0623,0.0623,0.0551,0.0541,0.0516,0.0448,0.0442,0.0463,0.0459,0.0457,0.0456,0,0,0,0,0,0,0,0.0949,0.0933,0.0786,0.0792,0.0783,0.0766,0.075,0.0702,0.0621,0.0677,0.0671,0.0656,0.0548,0.0521,0.0512,0.044,0.0463,0.0458,0.0455,0.0453,0.0347,0.0347,0,0,0,0,0,0,0.0965,0.094,0.0791,0.0782,0.0861,0.0763,0.0745,0.0713,0.0621,0.0606,0.0656,0.0653,0.053,0.0519,0.0507,0.0474,0.0457,0.0452,0.045,0.0346,0.0347,0.0347,0,0,0,0,0,0,0.0969,0.0952,0.0796,0.0859,0.0838,0.0759,0.0724,0.071,0.0684,0.0605,0.0591,0.0644,0.053,0.0515,0.0468,0.0468,0.045,0.0446,0.0346,0.0347,0.0347,0.0406,0,0,0,0,0,0,0.0976,0.0954,0.0943,0.086,0.0835,0.0758,0.0724,0.0708,0.0675,0.0669,0.059,0.0576,0.0528,0.0476,0.0463,0.0461,0.0441,0.0346,0.0346,0.0347,0.0404,0.0408,0.0412,0,0,0,0,0,0.0983,0.0965,0.0943,0.0925,0.0819,0.0758,0.0744,0.0688,0.0675,0.0664,0.0613,0.0579,0.047,0.0472,0.0457,0.0453,0.0346,0.0346,0.0347,0.0402,0.0407,0.0412,0,0,0,0,0,0,0.1051,0.0953,0.0927,0.0881,0.0829,0.0745,0.0729,0.0695,0.0646,0.0643,0.0576,0.0559,0.052,0.0481,0.0485,0.0425,0.0404,0.0402,0.0451,0.0456,0.046,0.0471,0.0437,0,0,0,0,0,0.106,0.1018,0.0935,0.0903,0.0878,0.0809,0.078,0.0741,0.0684,0.0662,0.0608,0.0556,0.051,0.0481,0.0434,0.0398,0.0381,0.0388,0.0392,0.0396,0.0395,0.0375,0.0378,0.0349,0.0349,0.0349,0,0,0.108,0.1021,0.0998,0.0915,0.087,0.0829,0.079,0.0748,0.0718,0.0656,0.0609,0.0568,0.0505,0.0464,0.0443,0.0431,0.0399,0.0397,0.04,0.0397,0.0376,0.0379,0.0381,0.0349,0.0349,0.0349,0,0,0.1094,0.1045,0.1013,0.0969,0.0901,0.0855,0.0848,0.077,0.074,0.0692,0.0645,0.0609,0.0531,0.0488,0.0457,0.0458,0.0425,0.0445,0.0467,0.0449,0.0451,0.0453,0.0455,0.0456,0.0444,0.0444,0.0444,0,0.1127,0.1062,0.1002,0.0963,0.0929,0.0871,0.084,0.08,0.0721,0.0699,0.0686,0.0588,0.0541,0.0491,0.0491,0.0467,0.0458,0.0453,0.0456,0.0457,0.0457,0.0459,0.046,0.0447,0.0447,0.0446,0.0446,0,0.1107,0.1063,0.1047,0.0971,0.0935,0.09,0.0837,0.0808,0.0773,0.073,0.0683,0.0625,0.0566,0.0551,0.0517,0.0497,0.0491,0.0468,0.0446,0.0464,0.0464,0.0464,0.0451,0.045,0.0449,0.0448,0,0,0.1159,0.1052,0.1047,0.1013,0.0934,0.09,0.0864,0.0806,0.0783,0.0731,0.0701,0.0637,0.0615,0.0579,0.054,0.0524,0.0531,0.0502,0.05,0.0511,0.0508,0.0526,0.0528,0.0509,0.0509,0.0509,0.0513,0,0.1163,0.1094,0.104,0.0992,0.0952,0.0898,0.0867,0.0816,0.0775,0.0737,0.0692,0.0648,0.0622,0.0601,0.0582,0.0534,0.053,0.0533,0.0482,0.0481,0.05,0.0528,0.0547,0.0554,0.0513,0.0513,0.0513,0,0.1157,0.1107,0.1056,0.0983,0.0965,0.0938,0.0881,0.0845,0.0788,0.0759,0.0721,0.068,0.0642,0.0624,0.0571,0.0575,0.0551,0.0525,0.0524,0.0517,0.0498,0.0523,0.0554,0.0556,0.0512,0.0512,0.0512,0,0.1202,0.1122,0.1081,0.1053,0.0968,0.095,0.0914,0.0857,0.0826,0.0778,0.0758,0.0706,0.0678,0.064,0.0587,0.0579,0.0541,0.0518,0.0518,0.052,0.0513,0.0514,0.0542,0.0496,0.0496,0.0496,0.0496,0,0.1212,0.1183,0.11,0.1075,0.1042,0.0981,0.095,0.091,0.086,0.0827,0.0777,0.0748,0.068,0.0644,0.0603,0.0567,0.0554,0.0532,0.0521,0.0537,0.054,0.052,0.0519,0.0496,0.0496,0.0496,0.0496,0,0.1256,0.1199,0.1151,0.1075,0.1055,0.1034,0.0969,0.0944,0.0901,0.0861,0.0848,0.0781,0.0736,0.068,0.0617,0.0589,0.0558,0.0542,0.0577,0.0571,0.0575,0.0576,0.0592,0.0592,0.0546,0.0547,0.0547,0,0.1266,0.1243,0.1164,0.1139,0.1104,0.1064,0.1033,0.0973,0.0943,0.0878,0.0861,0.0812,0.077,0.07,0.0647,0.0599,0.0582,0.0591,0.0574,0.0591,0.0584,0.0586,0.0584,0.0595,0.0596,0.0597,0.0597,0,0.1292,0.1265,0.1222,0.1169,0.1134,0.109,0.1043,0.1026,0.0957,0.0927,0.088,0.0847,0.0783,0.0736,0.0681,0.0645,0.0611,0.0603,0.0601,0.0616,0.0639,0.0628,0.059,0.0603,0.0602,0.0602,0.0602,0.0601,0.1319,0.1297,0.1239,0.1193,0.1153,0.1111,0.1085,0.1039,0.0998,0.0941,0.0909,0.0864,0.081,0.0733,0.0699,0.0664,0.0651,0.0647,0.0647,0.0647,0.0653,0.0644,0.0654,0.0653,0.0653,0.0653,0.0653,0,0.1343,0.1304,0.1262,0.12,0.1165,0.1135,0.1083,0.1056,0.1016,0.0968,0.0928,0.0876,0.083,0.0774,0.0725,0.0708,0.0691,0.0697,0.0699,0.0691,0.0666,0.0673,0.0712,0.0712,0.0712,0.0712,0.0712,0.0712,0.1351,0.1313,0.128,0.1222,0.1182,0.1137,0.111,0.1073,0.1035,0.0978,0.094,0.0904,0.0854,0.0801,0.0759,0.0744,0.0729,0.074,0.0721,0.0698,0.0693,0.0688,0.0695,0.0737,0.0737,0.0749,0.0749,0.0749]},{"header":{"parameterUnit":"m.s-1","parameterCategory":1,"la1":30.2991,"la2":30.254,"lo1":-89.0895,"lo2":-89.0444,"dy":0.0017,"dx":0.0017,"nx":28,"ny":28,"refTime":"2024-02-22T09:00:00:Z","depth":0,"parameterNumber":3,"parameterNumberName":"V-component_of_WINDS"},"data":[0,0,0,0,0,0,0,0,0,0,0,0,0,0,0,0,0,0,0,0,0,0,0,0,0,0,0,0,0,0,0,0,0,0,0,0,0,0,0,0,0,0,0,0,0,0,0,0,0,0,0,0,0,0,0,0,0,0,4.6816,4.6816,0,4.6775,4.6774,4.6774,4.6761,4.6761,4.6761,4.6761,4.6717,4.6715,4.6714,0,0,0,0,0,0,0,0,0,0,0,0,0,4.6885,4.6884,4.6816,4.6816,4.6815,4.6775,4.6774,4.6774,4.6761,4.6761,4.6761,4.6762,4.6717,4.6715,4.6714,0,0,0,0,0,0,0,0,0,0,0,0,0,4.685,4.6883,4.6816,4.6804,4.6802,4.6775,4.6774,4.6773,4.6761,4.6761,4.6761,4.6762,4.6718,4.6716,4.6714,4.6695,0,0,4.6707,4.6706,0,0,0,0,0,0,0,0,4.6852,4.6848,4.6806,4.6805,4.6803,4.6773,4.6782,4.6747,4.6761,4.6776,4.6761,4.6762,4.6735,4.6732,4.6723,4.6692,4.669,4.6707,4.6706,4.6705,4.6704,0,0,0,0,0,0,0,4.6855,4.685,4.68,4.6806,4.6804,4.6801,4.6796,4.6775,4.6754,4.6775,4.6774,4.677,4.6734,4.6725,4.6722,4.669,4.6707,4.6705,4.6704,4.6703,4.6646,4.6646,0,0,0,0,0,0,4.6859,4.6852,4.6801,4.6798,4.6829,4.6799,4.6794,4.6782,4.6755,4.6751,4.6769,4.6769,4.6728,4.6724,4.672,4.6699,4.6705,4.6703,4.6702,4.6646,4.6646,4.6645,0,0,0,0,0,0,4.6861,4.6855,4.6803,4.6825,4.6818,4.6798,4.6785,4.6781,4.6772,4.675,4.6746,4.6764,4.6729,4.6723,4.6702,4.6697,4.6702,4.67,4.6646,4.6646,4.6646,4.6654,0,0,0,0,0,0,4.6863,4.6856,4.6848,4.6825,4.6817,4.6785,4.6784,4.678,4.6769,4.6768,4.6744,4.674,4.6728,4.6705,4.67,4.6694,4.6699,4.6647,4.6646,4.6646,4.6654,4.6654,4.6654,0,0,0,0,0,4.6865,4.685,4.6847,4.6841,4.6806,4.6784,4.678,4.6767,4.6769,4.6761,4.6748,4.6741,4.6699,4.6703,4.6697,4.6691,4.6647,4.6646,4.6646,4.6654,4.6654,4.6654,0,0,0,0,0,0,4.6871,4.6847,4.6843,4.682,4.6805,4.6782,4.6772,4.6767,4.675,4.675,4.6734,4.6729,4.671,4.6698,4.6704,4.6673,4.6673,4.6671,4.6681,4.6681,4.668,4.6684,4.6697,0,0,0,0,0,4.687,4.6854,4.6834,4.6815,4.6808,4.6792,4.6781,4.6774,4.6757,4.675,4.6734,4.6718,4.6701,4.669,4.6673,4.6653,4.6648,4.6645,4.6645,4.6645,4.6644,4.6635,4.6634,4.6643,4.6643,4.6643,0,0,4.6866,4.6851,4.6842,4.6816,4.6803,4.6788,4.6786,4.6769,4.6758,4.6747,4.6727,4.6715,4.6696,4.6676,4.6667,4.6666,4.6641,4.6644,4.6645,4.6643,4.6634,4.6634,4.6633,4.6643,4.6643,4.6643,0,0,4.6853,4.684,4.6824,4.6813,4.6794,4.6784,4.6781,4.676,4.6753,4.6733,4.6725,4.6712,4.6682,4.667,4.666,4.6647,4.6641,4.6642,4.6641,4.6633,4.6632,4.6631,4.6629,4.6628,4.6641,4.6641,4.6641,0,4.6851,4.6828,4.6817,4.6802,4.6792,4.6783,4.6769,4.6757,4.6734,4.6727,4.6727,4.6693,4.6679,4.6658,4.6656,4.6647,4.6644,4.6644,4.6633,4.6632,4.6632,4.6629,4.6628,4.6641,4.6641,4.6641,4.6641,0,4.6828,4.6813,4.6803,4.6783,4.6772,4.6756,4.6744,4.6734,4.6728,4.6719,4.67,4.6684,4.6665,4.666,4.6652,4.6638,4.6639,4.6636,4.6636,4.6631,4.6629,4.6627,4.6641,4.6641,4.6641,4.6641,0,0,4.6814,4.6792,4.6788,4.6781,4.6762,4.6749,4.6736,4.6719,4.6712,4.6697,4.6686,4.6663,4.6662,4.6651,4.6643,4.6635,4.663,4.6634,4.6633,4.6635,4.6616,4.6619,4.6617,4.6626,4.6626,4.6626,4.6618,0,4.68,4.6775,4.6766,4.6746,4.6733,4.6727,4.6715,4.6703,4.6694,4.6682,4.6673,4.6658,4.6656,4.665,4.6643,4.6632,4.6626,4.6632,4.6616,4.6616,4.6622,4.6616,4.6617,4.6611,4.6617,4.6616,4.6616,0,4.6778,4.6766,4.6745,4.6732,4.6726,4.6715,4.6701,4.669,4.6677,4.6671,4.6661,4.6654,4.6641,4.6642,4.6624,4.6629,4.6623,4.6617,4.6616,4.6614,4.6616,4.6615,4.6608,4.6608,4.6614,4.6614,4.6614,0,4.6773,4.6751,4.6737,4.673,4.6713,4.6706,4.6699,4.6686,4.6678,4.6666,4.6661,4.6647,4.6639,4.6629,4.662,4.6621,4.6604,4.6603,4.66,4.66,4.6596,4.6596,4.6589,4.659,4.659,4.659,4.659,0,4.6758,4.6746,4.6735,4.6726,4.6713,4.6704,4.6691,4.6684,4.6673,4.6663,4.6657,4.6648,4.6635,4.6625,4.6618,4.6606,4.6602,4.6598,4.6596,4.6599,4.66,4.6594,4.6595,4.659,4.659,4.659,4.659,0,4.6749,4.6741,4.6725,4.6712,4.6709,4.67,4.6689,4.668,4.6673,4.6661,4.6658,4.6646,4.6634,4.6624,4.6607,4.6603,4.6591,4.6588,4.6596,4.6595,4.6592,4.6593,4.6582,4.6581,4.6582,4.6582,4.6582,0,4.6741,4.6732,4.6719,4.6712,4.6706,4.6695,4.6688,4.668,4.6672,4.6659,4.6653,4.6641,4.6631,4.6613,4.6603,4.6591,4.6589,4.6586,4.6587,4.6591,4.659,4.6592,4.6592,4.6586,4.6586,4.6586,4.6586,0,4.6727,4.6724,4.6714,4.6704,4.6696,4.6687,4.6677,4.6673,4.6663,4.6656,4.6644,4.6637,4.6622,4.6611,4.6599,4.6592,4.6588,4.6586,4.6585,4.6587,4.6593,4.6592,4.6597,4.6586,4.6586,4.6586,4.6586,4.6586,4.6718,4.6712,4.6702,4.6692,4.6686,4.6678,4.6671,4.6664,4.6655,4.6643,4.6639,4.6628,4.6619,4.6602,4.6596,4.6588,4.6587,4.6584,4.6584,4.6584,4.6585,4.6594,4.6585,4.6585,4.6585,4.6585,4.6585,0,4.6706,4.67,4.6692,4.6681,4.6673,4.6672,4.6663,4.6657,4.6648,4.664,4.6631,4.662,4.661,4.6601,4.6591,4.6586,4.6584,4.6584,4.6584,4.6583,4.6585,4.6588,4.6586,4.6586,4.6586,4.6586,4.6586,4.6586,4.6698,4.6687,4.6684,4.6671,4.6666,4.6656,4.6651,4.6645,4.6639,4.6627,4.662,4.6615,4.6607,4.6597,4.6588,4.6586,4.6583,4.6584,4.6581,4.6583,4.6583,4.6583,4.6585,4.6583,4.6583,4.658,4.6579,4.6579]}]]